DW2893 Weather Reports


Display with metric or nautical units.
time (UTC)temp
F
wind
direction
speed
MPH
gust
MPH
rain 1hr
in
rain 24hr
in
rain mn
in
humidity
%
barometer
mb
20181212094305 48 174 7.0 13.0 0.00 0.00 0.00 87 1015.8
20181212093306 48 168 7.0 16.0 0.00 0.00 0.00 87 1015.7
20181212092805 48 157 8.0 14.0 0.00 0.00 0.00 86 1015.7
20181212092306 48 159 9.0 14.0 0.00 0.00 0.00 86 1016.2
20181212091306 48 150 7.0 15.0 0.00 0.00 0.00 86 1016.2
20181212090805 48 157 7.0 15.0 0.00 0.00 0.00 86 1016.2
20181212085805 48 162 7.0 12.0 0.00 0.00 0.00 86 1016.2
20181212085305 48 150 7.0 12.0 0.00 0.00 0.00 86 1016.2
20181212084306 48 161 7.0 12.0 0.00 0.00 0.00 85 1016.0
20181212083805 48 158 10.0 14.0 0.00 0.00 0.00 85 1016.6
20181212083305 48 151 9.0 14.0 0.00 0.00 0.00 85 1016.6
20181212082307 48 169 6.0 14.0 0.00 0.00 0.00 85 1016.5
20181212081805 48 168 7.0 13.0 0.00 0.00 0.00 85 1016.6
20181212081306 48 157 7.0 17.0 0.00 0.00 0.00 84 1016.7
20181212080805 48 164 9.0 14.0 0.00 0.00 0.00 84 1016.7
20181212080306 48 154 7.0 12.0 0.00 0.00 0.00 83 1016.7
20181212075306 49 168 7.0 12.0 0.00 0.00 0.00 83 1016.8
20181212074805 49 150 6.0 12.0 0.00 0.00 0.00 83 1016.9
20181212073805 49 154 7.0 10.0 0.00 0.00 0.00 83 1017.0
20181212073305 49 160 6.0 12.0 0.00 0.00 0.00 82 1017.1
20181212072806 49 143 6.0 12.0 0.00 0.00 0.00 82 1017.1
20181212072306 49 172 6.0 12.0 0.00 0.00 0.00 82 1017.2
20181212071805 49 170 7.0 12.0 0.00 0.00 0.00 82 1017.3
20181212071305 49 173 8.0 12.0 0.00 0.00 0.00 82 1017.3
20181212070806 49 182 7.0 12.0 0.00 0.00 0.00 81 1017.2
20181212070305 50 178 7.0 12.0 0.00 0.00 0.00 81 1017.1
20181212065806 50 171 9.0 14.0 0.00 0.00 0.00 81 1017.1
20181212065305 50 174 9.0 14.0 0.00 0.00 0.00 81 1017.2
20181212064305 50 170 9.0 15.0 0.00 0.00 0.00 80 1017.6
20181212063805 50 177 8.0 14.0 0.00 0.00 0.00 80 1017.8
20181212063305 50 171 8.0 13.0 0.00 0.00 0.00 79 1017.8
20181212062805 50 184 9.0 14.0 0.00 0.00 0.00 79 1017.7
20181212061805 50 177 8.0 14.0 0.00 0.00 0.00 78 1017.5
20181212061305 50 173 6.0 13.0 0.00 0.00 0.00 78 1017.6
20181212060849 50 164 6.0 12.0 0.00 0.00 0.00 77 1017.7
20181212054305 51 191 9.0 12.0 0.00 0.00 0.00 75 1017.9
20181212053805 51 175 8.0 12.0 0.00 0.00 0.00 75 1018.0
20181212053304 51 176 9.0 14.0 0.00 0.00 0.00 75 1018.0
20181212052805 51 171 7.0 12.0 0.00 0.00 0.00 74 1018.2
20181212052305 51 174 7.0 12.0 0.00 0.00 0.00 74 1018.3
20181212051805 51 169 9.0 12.0 0.00 0.00 0.00 73 1018.3
20181212051308 51 175 7.0 12.0 0.00 0.00 0.00 73 1018.3
20181212050805 51 182 7.0 14.0 0.00 0.00 0.00 73 1018.3
20181212050308 51 167 9.0 14.0 0.00 0.00 0.00 72 1018.3
20181212045805 51 181 10.0 18.0 0.00 0.00 0.00 72 1018.2
20181212044804 51 179 9.0 17.0 0.00 0.00 0.00 71 1018.1
20181212044305 51 184 10.0 15.0 0.00 0.00 0.00 71 1018.1
20181212043805 51 181 10.0 17.0 0.00 0.00 0.00 71 1018.3
20181212043305 51 176 9.0 16.0 0.00 0.00 0.00 71 1018.3
20181212042806 51 177 9.0 14.0 0.00 0.00 0.00 70 1018.3
20181212041805 51 172 9.0 14.0 0.00 0.00 0.00 69 1017.9
20181212041304 51 175 7.0 15.0 0.00 0.00 0.00 69 1017.9
20181212040805 51 167 7.0 13.0 0.00 0.00 0.00 68 1017.9
20181212035804 51 159 7.0 13.0 0.00 0.00 0.00 68 1017.9
20181212034804 51 155 7.0 12.0 0.00 0.00 0.00 67 1018.0
20181212034304 51 166 9.0 14.0 0.00 0.00 0.00 67 1017.9
20181212033804 51 146 7.0 14.0 0.00 0.00 0.00 66 1017.9
20181212033304 51 157 9.0 15.0 0.00 0.00 0.00 66 1018.3
20181212032305 51 149 9.0 14.0 0.00 0.00 0.00 66 1018.5
20181212031305 51 161 8.0 18.0 0.00 0.00 0.00 65 1018.6
20181212030805 51 177 10.0 18.0 0.00 0.00 0.00 65 1018.5
20181212025804 51 169 9.0 13.0 0.00 0.00 0.00 64 1018.5
20181212025304 51 159 9.0 17.0 0.00 0.00 0.00 63 1018.5
20181212024305 52 150 8.0 13.0 0.00 0.00 0.00 62 1018.5
20181212023805 52 162 9.0 14.0 0.00 0.00 0.00 62 1018.8
20181212023305 52 166 9.0 15.0 0.00 0.00 0.00 62 1018.8
20181212022805 52 166 10.0 16.0 0.00 0.00 0.00 61 1018.8
20181212022305 52 168 9.0 13.0 0.00 0.00 0.00 61 1018.7
20181212021805 52 157 10.0 17.0 0.00 0.00 0.00 60 1018.6
20181212021304 52 159 10.0 17.0 0.00 0.00 0.00 60 1018.6
20181212020305 53 174 11.0 20.0 0.00 0.00 0.00 59 1018.6
20181212015305 53 163 10.0 20.0 0.00 0.00 0.00 58 1018.4
20181212014805 53 162 10.0 18.0 0.00 0.00 0.00 58 1018.4
20181212014305 53 178 9.0 18.0 0.00 0.00 0.00 57 1018.4
20181212013305 53 166 12.0 20.0 0.00 0.00 0.00 56 1018.6
20181212012805 53 184 12.0 23.0 0.00 0.00 0.00 55 1018.6
20181212012305 53 179 10.0 18.0 0.00 0.00 0.00 55 1018.6
20181212011805 54 171 8.0 17.0 0.00 0.00 0.00 54 1018.7
20181212010305 54 164 9.0 18.0 0.00 0.00 0.00 53 1018.2
20181212005805 54 147 12.0 26.0 0.00 0.00 0.00 53 1018.2
20181212005305 54 173 14.0 24.0 0.00 0.00 0.00 53 1018.4
20181212004305 54 176 13.0 21.0 0.00 0.00 0.00 52 1018.6
20181212003806 54 178 16.0 25.0 0.00 0.00 0.00 52 1018.6
20181212003306 54 170 14.0 23.0 0.00 0.00 0.00 53 1019.0
20181212002805 54 175 9.0 18.0 0.00 0.00 0.00 53 1019.0
20181212001806 54 171 13.0 22.0 0.00 0.00 0.00 53 1018.8
20181212000805 54 165 10.0 23.0 0.00 0.00 0.00 54 1018.8
20181212000306 54 171 9.0 20.0 0.00 0.00 0.00 54 1018.7
20181211234805 54 163 11.0 20.0 0.00 0.00 0.00 54 1018.8
20181211234306 54 162 12.0 21.0 0.00 0.00 0.00 54 1018.6
20181211233305 55 156 9.0 16.0 0.00 0.00 0.00 54 1018.9
20181211232805 55 149 10.0 18.0 0.00 0.00 0.00 54 1018.9
20181211232305 55 166 10.0 20.0 0.00 0.00 0.00 53 1019.0
20181211231806 55 163 11.0 22.0 0.00 0.00 0.00 53 1019.0
20181211231305 55 167 12.0 20.0 0.00 0.00 0.00 52 1018.9
20181211230806 55 160 10.0 20.0 0.00 0.00 0.00 52 1018.9
20181211225305 56 157 9.0 16.0 0.00 0.00 0.00 50 1018.9
20181211224305 56 164 10.0 20.0 0.00 0.00 0.00 50 1019.0
20181211223806 56 173 9.0 16.0 0.00 0.00 0.00 50 1019.0
20181211223306 56 143 9.0 20.0 0.00 0.00 0.00 50 1019.0
20181211221805 57 163 14.0 20.0 0.00 0.00 0.00 49 1019.0
20181211215805 57 164 12.0 20.0 0.00 0.00 0.00 48 1019.1
20181211215305 57 160 8.0 17.0 0.00 0.00 0.00 48 1019.2
20181211214305 58 174 14.0 20.0 0.00 0.00 0.00 46 1019.3
20181211213306 58 178 9.0 23.0 0.00 0.00 0.00 44 1019.4
20181211212805 58 164 13.0 22.0 0.00 0.00 0.00 44 1019.5
20181211212305 59 164 10.0 18.0 0.00 0.00 0.00 44 1019.5
20181211211805 59 174 9.0 20.0 0.00 0.00 0.00 42 1019.7
20181211211305 59 179 8.0 18.0 0.00 0.00 0.00 41 1019.7
20181211210805 59 152 9.0 15.0 0.00 0.00 0.00 39 1019.7
20181211210305 59 175 11.0 17.0 0.00 0.00 0.00 38 1019.7
20181211205805 59 166 10.0 23.0 0.00 0.00 0.00 38 1019.7
20181211204305 60 167 13.0 25.0 0.00 0.00 0.00 37 1019.8
20181211203305 60 172 13.0 20.0 0.00 0.00 0.00 36 1020.0
20181211202805 60 177 12.0 22.0 0.00 0.00 0.00 36 1020.0
20181211202305 61 177 12.0 20.0 0.00 0.00 0.00 35 1020.0
20181211201805 61 183 12.0 21.0 0.00 0.00 0.00 34 1020.2
20181211200805 60 175 16.0 28.0 0.00 0.00 0.00 34 1020.2
20181211200305 60 173 16.0 24.0 0.00 0.00 0.00 34 1020.2
20181211195805 60 166 16.0 26.0 0.00 0.00 0.00 34 1020.5
20181211195304 61 169 17.0 25.0 0.00 0.00 0.00 33 1020.5
20181211194805 61 159 13.0 25.0 0.00 0.00 0.00 34 1020.6
20181211194305 61 182 14.0 26.0 0.00 0.00 0.00 35 1020.6
20181211193805 61 183 9.0 21.0 0.00 0.00 0.00 36 1020.6
20181211193304 61 201 10.0 25.0 0.00 0.00 0.00 36 1021.0
20181211192805 61 194 13.0 23.0 0.00 0.00 0.00 36 1021.0
20181211191305 61 173 11.0 20.0 0.00 0.00 0.00 37 1021.1
20181211190805 60 177 13.0 25.0 0.00 0.00 0.00 37 1021.4
20181211190305 59 195 17.0 25.0 0.00 0.00 0.00 38 1021.4
20181211185804 59 194 14.0 24.0 0.00 0.00 0.00 37 1021.6
20181211185304 59 185 16.0 26.0 0.00 0.00 0.00 37 1022.0
20181211184805 59 182 18.0 29.0 0.00 0.00 0.00 36 1022.0
20181211184305 59 183 16.0 35.0 0.00 0.00 0.00 36 1022.0
20181211183305 59 197 18.0 31.0 0.00 0.00 0.00 36 1022.6
20181211182806 60 195 13.0 25.0 0.00 0.00 0.00 36 1022.6
20181211181805 59 192 18.0 28.0 0.00 0.00 0.00 36 1022.6
20181211181305 59 165 15.0 29.0 0.00 0.00 0.00 39 1022.6
20181211180805 59 186 17.0 28.0 0.00 0.00 0.00 41 1022.6
20181211180305 58 204 15.0 25.0 0.00 0.00 0.00 43 1022.6
20181211175805 58 189 17.0 29.0 0.00 0.00 0.00 43 1022.9
20181211175305 58 183 13.0 28.0 0.00 0.00 0.00 46 1022.9
20181211174305 58 177 10.0 22.0 0.00 0.00 0.00 49 1023.4
20181211172805 58 197 11.0 17.0 0.00 0.00 0.00 50 1024.2
20181211172305 57 192 10.0 22.0 0.00 0.00 0.00 51 1024.2
20181211171805 57 191 13.0 20.0 0.00 0.00 0.00 53 1024.2
20181211171305 56 204 11.0 22.0 0.00 0.00 0.00 54 1024.2
20181211165805 55 189 10.0 20.0 0.00 0.00 0.00 55 1024.5
20181211165305 55 203 11.0 17.0 0.00 0.00 0.00 55 1024.5
20181211164805 55 199 9.0 17.0 0.00 0.00 0.00 55 1024.5
20181211163304 53 203 11.0 25.0 0.00 0.00 0.00 57 1024.6
20181211162308 54 199 10.0 21.0 0.00 0.00 0.00 57 1024.6
20181211161805 54 196 11.0 17.0 0.00 0.00 0.00 58 1024.6
20181211160805 53 184 10.0 17.0 0.00 0.00 0.00 59 1024.7
20181211160305 52 182 9.0 16.0 0.00 0.00 0.00 61 1024.7
20181211155805 51 190 9.0 14.0 0.00 0.00 0.00 63 1024.7
20181211154805 50 178 13.0 20.0 0.00 0.00 0.00 65 1024.8
20181211154305 49 189 9.0 15.0 0.00 0.00 0.00 65 1024.9
20181211153805 49 189 9.0 16.0 0.00 0.00 0.00 66 1024.9
20181211153305 49 187 8.0 14.0 0.00 0.00 0.00 67 1025.0
20181211152805 48 180 10.0 17.0 0.00 0.00 0.00 67 1025.0
20181211151806 48 164 10.0 15.0 0.00 0.00 0.00 68 1025.0
20181211151305 48 182 10.0 20.0 0.00 0.00 0.00 70 1025.0
20181211150805 47 168 10.0 18.0 0.00 0.00 0.00 73 1025.0
20181211150306 45 188 9.0 14.0 0.00 0.00 0.00 78 1025.0
20181211145806 42 181 7.0 13.0 0.00 0.00 0.00 82 1025.1
20181211145305 41 172 8.0 13.0 0.00 0.00 0.00 84 1025.1
20181211144805 40 181 9.0 15.0 0.00 0.00 0.00 86 1025.0
20181211144306 39 166 6.0 9.0 0.00 0.00 0.00 86 1024.9
20181211142805 37 164 6.0 8.0 0.00 0.00 0.00 88 1025.0
20181211142306 37 153 5.0 7.0 0.00 0.00 0.00 89 1025.2
20181211141805 36 171 5.0 7.0 0.00 0.00 0.00 89 1025.3
20181211141305 36 149 5.0 8.0 0.00 0.00 0.00 89 1025.2
20181211140805 35 150 5.0 8.0 0.00 0.00 0.00 89 1025.1
20181211135806 35 150 4.0 7.0 0.00 0.00 0.00 89 1025.0
20181211135305 35 140 4.0 8.0 0.00 0.00 0.00 90 1025.0
20181211134805 34 149 5.0 7.0 0.00 0.00 0.00 90 1025.1
20181211132305 34 152 3.0 6.0 0.00 0.00 0.00 89 1025.0
20181211131805 33 140 3.0 6.0 0.00 0.00 0.00 89 1025.0
20181211131306 33 157 3.0 6.0 0.00 0.00 0.00 89 1025.0
20181211130805 33 140 3.0 5.0 0.00 0.00 0.00 89 1025.0
20181211125305 33 155 2.0 5.0 0.00 0.00 0.00 89 1025.1
20181211124305 33 143 2.0 3.0 0.00 0.00 0.00 89 1025.2
20181211123806 33 143 2.0 3.0 0.00 0.00 0.00 89 1025.2
20181211122805 33 151 3.0 5.0 0.00 0.00 0.00 88 1025.2
20181211122305 33 136 2.0 5.0 0.00 0.00 0.00 88 1025.3
20181211121805 33 148 2.0 3.0 0.00 0.00 0.00 88 1025.2
20181211121305 33 148 2.0 3.0 0.00 0.00 0.00 88 1025.2
20181211120804 33 140 2.0 5.0 0.00 0.00 0.00 88 1025.2
20181211120305 33 146 2.0 5.0 0.00 0.00 0.00 87 1025.0
20181211115805 33 139 2.0 5.0 0.00 0.00 0.00 87 1025.0
20181211115306 33 139 2.0 5.0 0.00 0.00 0.00 87 1025.0
20181211112805 34 168 2.0 3.0 0.00 0.00 0.00 86 1024.9
20181211112305 34 168 1.0 3.0 0.00 0.00 0.00 86 1024.9
20181211110305 34 168 1.0 3.0 0.00 0.00 0.00 86 1024.7
20181211105805 34 168 2.0 3.0 0.00 0.00 0.00 86 1024.7
20181211104805 34 168 3.0 5.0 0.00 0.00 0.00 86 1024.7
20181211104305 34 167 3.0 5.0 0.00 0.00 0.00 86 1024.7
20181211103805 34 162 3.0 5.0 0.00 0.00 0.00 85 1024.7
20181211103304 34 158 3.0 5.0 0.00 0.00 0.00 85 1024.8
20181211102805 34 155 3.0 5.0 0.00 0.00 0.00 85 1024.8
20181211102306 34 153 3.0 5.0 0.00 0.00 0.00 86 1025.0
20181211101304 35 173 3.0 3.0 0.00 0.00 0.00 83 1025.1
20181211095804 35 173 2.0 3.0 0.00 0.00 0.00 83 1025.4
20181211095306 36 173 1.0 2.0 0.00 0.00 0.00 83 1025.4